Location: *
(48.4333°N, 5.0333°W)
Time: 03:38:36
(UTC+00:00)

Cosmos 1408 - Pass Details

Date: 09 April 2020
Orbit: 470 x 494 km, 82.6° (Epoch: 02 June)

Event Time Altitude Azimuth Distance (km) Brightness Sun altitude
Rises 20:41:13 0° 1° (N) 2,565 6.7 -15.8°
Reaches altitude 10° 20:43:39 10° 17° (NNE) 1,684 5.5 -16.1°
Maximum altitude 20:46:39 23° 71° (ENE) 1,081 4.0 -16.5°
Enters shadow 20:46:40 23° 72° (ENE) 1,081 4.0 -16.5°
